�������l�o���
Date,Time,MP-1(��Sv/h),MP-2(��Sv/h),MP-3(��Sv/h),MP-4(��Sv/h),MP-5(��Sv/h),MP-6(��Sv/h),MP-7(��Sv/h),MP-8(��Sv/h),����,����(m/s),���J
2021/08/20,00:00,0.592,0.879,0.555,1.059,0.747,0.364,0.624,0.583,�k�k��,2.0,��
2021/08/20,00:10,0.590,0.880,0.555,1.061,0.748,0.364,0.624,0.583,�k,3.1,��
2021/08/20,00:20,0.592,0.880,0.555,1.059,0.747,0.363,0.623,0.583,�k,4.4,��
2021/08/20,00:30,0.590,0.878,0.556,1.059,0.746,0.362,0.623,0.584,�k�k��,4.8,��
2021/08/20,00:40,0.592,0.879,0.554,1.062,0.746,0.362,0.624,0.583,�k,4.3,��
2021/08/20,00:50,0.592,0.878,0.557,1.062,0.747,0.362,0.625,0.583,�k,4.1,��
2021/08/20,01:00,0.593,0.880,0.556,1.063,0.747,0.363,0.625,0.583,�k,3.8,��
2021/08/20,01:10,0.590,0.880,0.556,1.060,0.746,0.364,0.624,0.584,�k�k��,4.3,��
2021/08/20,01:20,0.590,0.878,0.556,1.060,0.750,0.363,0.624,0.584,�k�k��,5.3,��
2021/08/20,01:30,0.588,0.878,0.555,1.063,0.748,0.363,0.623,0.583,�k�k��,5.6,��
2021/08/20,01:40,0.592,0.878,0.554,1.062,0.748,0.363,0.624,0.583,�k,4.2,��
2021/08/20,01:50,0.592,0.880,0.555,1.060,0.748,0.362,0.623,0.584,�k,4.2,��
2021/08/20,02:00,0.590,0.879,0.554,1.063,0.746,0.363,0.622,0.585,�k�k��,3.3,��
2021/08/20,02:10,0.590,0.877,0.554,1.061,0.746,0.363,0.622,0.582,�k�k��,4.0,��
2021/08/20,02:20,0.588,0.877,0.552,1.060,0.744,0.363,0.622,0.583,�k�k��,4.9,��
2021/08/20,02:30,0.589,0.878,0.553,1.060,0.746,0.363,0.622,0.582,�k�k��,5.2,��
2021/08/20,02:40,0.587,0.877,0.554,1.058,0.744,0.362,0.622,0.584,�k,3.4,��
2021/08/20,02:50,0.588,0.877,0.554,1.060,0.744,0.362,0.622,0.583,�k�k��,3.8,��
2021/08/20,03:00,0.587,0.874,0.553,1.061,0.743,0.360,0.622,0.583,�k�k��,2.8,��
2021/08/20,03:10,0.587,0.876,0.552,1.060,0.745,0.361,0.622,0.583,�k�k��,3.4,��
2021/08/20,03:20,0.588,0.879,0.552,1.060,0.745,0.362,0.621,0.584,�k�k��,4.3,��
2021/08/20,03:30,0.587,0.875,0.552,1.060,0.745,0.361,0.622,0.584,�k,3.5,��
2021/08/20,03:40,0.587,0.879,0.552,1.060,0.745,0.361,0.622,0.584,�k�k��,3.6,��
2021/08/20,03:50,0.587,0.876,0.554,1.060,0.746,0.360,0.622,0.582,�k�k��,3.8,��
2021/08/20,04:00,0.589,0.878,0.554,1.058,0.746,0.361,0.622,0.583,�k�k��,3.6,��
2021/08/20,04:10,0.588,0.877,0.552,1.062,0.746,0.361,0.623,0.585,�k�k��,2.9,��
2021/08/20,04:20,0.588,0.878,0.554,1.061,0.744,0.360,0.621,0.585,�k�k��,2.5,��
2021/08/20,04:30,0.588,0.878,0.555,1.061,0.747,0.361,0.622,0.584,�k�k��,2.8,��
2021/08/20,04:40,0.587,0.879,0.552,1.061,0.745,0.362,0.621,0.582,�k,2.5,��
2021/08/20,04:50,0.588,0.877,0.554,1.061,0.747,0.362,0.622,0.583,�k,3.9,��
2021/08/20,05:00,0.588,0.877,0.554,1.060,0.744,0.359,0.621,0.584,�k,3.9,��
2021/08/20,05:10,0.589,0.877,0.553,1.059,0.748,0.361,0.620,0.585,�k�k��,4.9,��
2021/08/20,05:20,0.588,0.877,0.553,1.062,0.745,0.362,0.621,0.584,�k�k��,4.4,��
2021/08/20,05:30,0.590,0.878,0.553,1.060,0.745,0.361,0.622,0.584,�k�k��,4.1,��
2021/08/20,05:40,0.588,0.879,0.552,1.059,0.747,0.361,0.622,0.583,�k�k��,4.2,��
2021/08/20,05:50,0.590,0.875,0.553,1.061,0.743,0.363,0.623,0.583,�k�k��,3.6,��
2021/08/20,06:00,0.589,0.877,0.554,1.059,0.746,0.361,0.622,0.583,�k,3.3,��
2021/08/20,06:10,0.588,0.879,0.554,1.061,0.747,0.361,0.621,0.584,�k,3.2,��
2021/08/20,06:20,0.587,0.878,0.553,1.063,0.745,0.361,0.622,0.583,�k,2.8,��
2021/08/20,06:30,0.589,0.877,0.555,1.061,0.745,0.361,0.622,0.584,�k,2.9,��
2021/08/20,06:40,0.589,0.879,0.553,1.062,0.744,0.362,0.623,0.584,�k,3.4,��
2021/08/20,06:50,0.587,0.877,0.552,1.061,0.744,0.363,0.621,0.583,�k,3.9,��
2021/08/20,07:00,0.588,0.878,0.553,1.060,0.746,0.361,0.622,0.584,�k,4.3,��
2021/08/20,07:10,0.588,0.875,0.552,1.060,0.744,0.361,0.622,0.585,�k�k��,4.0,��
2021/08/20,07:20,0.588,0.875,0.552,1.061,0.744,0.359,0.621,0.584,�k�k��,4.7,��
2021/08/20,07:30,0.590,0.874,0.552,1.060,0.745,0.360,0.622,0.585,�k��,4.4,��
2021/08/20,07:40,0.589,0.875,0.552,1.058,0.747,0.359,0.621,0.584,�k�k��,4.8,��
2021/08/20,07:50,0.589,0.873,0.553,1.060,0.745,0.359,0.621,0.583,�k�k��,4.0,��
2021/08/20,08:00,0.589,0.875,0.554,1.060,0.745,0.358,0.621,0.584,�k�k��,3.6,��
2021/08/20,08:10,0.587,0.876,0.553,1.058,0.746,0.360,0.621,0.583,�k�k��,2.9,��
2021/08/20,08:20,0.588,0.873,0.553,1.060,0.745,0.360,0.622,0.581,�k�k��,3.3,��
2021/08/20,08:30,0.589,0.874,0.553,1.061,0.745,0.359,0.621,0.583,�k,2.6,��
2021/08/20,08:40,0.589,0.874,0.551,1.060,0.745,0.361,0.621,0.581,�k�k��,1.9,��
2021/08/20,08:50,0.586,0.873,0.550,1.060,0.746,0.360,0.620,0.582,���k��,2.2,��
2021/08/20,09:00,0.587,0.874,0.552,1.061,0.745,0.361,0.620,0.581,�k��,2.0,��
2021/08/20,09:10,0.588,0.874,0.553,1.060,0.745,0.358,0.620,0.581,�k�k��,1.7,��
2021/08/20,09:20,0.586,0.876,0.551,1.061,0.745,0.360,0.620,0.582,���k��,1.7,��
2021/08/20,09:30,0.587,0.874,0.551,1.058,0.746,0.361,0.620,0.581,���k��,1.7,��
2021/08/20,09:40,0.587,0.873,0.553,1.061,0.743,0.359,0.620,0.581,���쓌,1.5,��
2021/08/20,09:50,0.587,0.874,0.551,1.061,0.745,0.359,0.620,0.579,���k��,0.9,��
2021/08/20,10:00,0.588,0.874,0.552,1.061,0.745,0.361,0.619,0.582,�쓌,1.9,��
2021/08/20,10:10,0.586,0.876,0.552,1.061,0.743,0.360,0.620,0.581,���쓌,1.5,��
2021/08/20,10:20,0.588,0.876,0.552,1.062,0.745,0.361,0.620,0.581,���쓌,1.5,��
2021/08/20,10:30,0.586,0.876,0.553,1.061,0.744,0.361,0.622,0.581,��,1.5,��
2021/08/20,10:40,0.587,0.877,0.551,1.060,0.747,0.361,0.621,0.581,��,1.9,��
2021/08/20,10:50,0.587,0.875,0.553,1.060,0.744,0.360,0.623,0.583,���쓌,1.7,��
2021/08/20,11:00,0.587,0.875,0.552,1.060,0.746,0.360,0.622,0.582,��,2.2,��
2021/08/20,11:10,0.587,0.876,0.551,1.059,0.746,0.362,0.621,0.582,��,2.0,��
2021/08/20,11:20,0.588,0.877,0.551,1.061,0.746,0.361,0.621,0.581,��,2.0,��
2021/08/20,11:30,0.588,0.878,0.552,1.060,0.746,0.361,0.623,0.583,��,2.0,��
2021/08/20,11:40,0.588,0.878,0.552,1.061,0.746,0.361,0.623,0.582,���k��,2.6,��
2021/08/20,11:50,0.588,0.877,0.552,1.061,0.748,0.361,0.622,0.581,��,2.0,��
2021/08/20,12:00,0.589,0.878,0.552,1.063,0.748,0.359,0.622,0.580,���k��,2.0,��
2021/08/20,12:10,0.590,0.879,0.553,1.060,0.747,0.361,0.622,0.581,��,2.3,��
2021/08/20,12:20,0.590,0.878,0.554,1.061,0.747,0.360,0.622,0.582,�k��,2.3,��
2021/08/20,12:30,0.590,0.881,0.554,1.063,0.748,0.361,0.621,0.583,���k��,2.5,��
2021/08/20,12:40,0.589,0.878,0.553,1.059,0.747,0.362,0.622,0.583,���k��,2.6,��
2021/08/20,12:50,0.589,0.880,0.554,1.061,0.747,0.361,0.622,0.584,�k��,2.0,��
2021/08/20,13:00,0.589,0.877,0.554,1.063,0.748,0.361,0.623,0.582,���k��,1.9,��
2021/08/20,13:10,0.590,0.880,0.554,1.062,0.750,0.362,0.622,0.582,���k��,1.9,��
2021/08/20,13:20,0.591,0.879,0.554,1.062,0.747,0.361,0.623,0.583,���k��,2.5,��
2021/08/20,13:30,0.589,0.879,0.554,1.063,0.748,0.359,0.625,0.583,���k��,2.2,��
2021/08/20,13:40,0.588,0.880,0.553,1.064,0.748,0.362,0.622,0.581,�k��,2.0,��
2021/08/20,13:50,0.590,0.880,0.552,1.063,0.749,0.360,0.624,0.583,���k��,2.0,��
2021/08/20,14:00,0.591,0.881,0.554,1.063,0.748,0.361,0.622,0.581,��,1.9,��
2021/08/20,14:10,0.588,0.878,0.553,1.065,0.747,0.361,0.623,0.582,�k��,2.5,��
2021/08/20,14:20,0.590,0.879,0.554,1.066,0.747,0.361,0.624,0.583,�k��,1.9,��
2021/08/20,14:30,0.590,0.880,0.553,1.066,0.746,0.362,0.621,0.582,�k��,2.5,��
2021/08/20,14:40,0.589,0.883,0.553,1.064,0.748,0.360,0.623,0.580,���k��,2.3,��
2021/08/20,14:50,0.588,0.882,0.554,1.064,0.748,0.360,0.622,0.582,���k��,2.0,��
2021/08/20,15:00,0.588,0.882,0.554,1.064,0.750,0.361,0.623,0.583,�k��,1.7,��
2021/08/20,15:10,0.591,0.883,0.554,1.064,0.747,0.361,0.624,0.583,�k�k��,1.7,��
2021/08/20,15:20,0.590,0.881,0.555,1.066,0.748,0.359,0.623,0.582,�k�k��,1.5,��
2021/08/20,15:30,0.588,0.881,0.554,1.068,0.750,0.360,0.623,0.582,�k��,1.4,��
2021/08/20,15:40,0.589,0.884,0.554,1.067,0.749,0.361,0.625,0.582,�k�k��,1.2,��
2021/08/20,15:50,0.590,0.882,0.554,1.066,0.750,0.362,0.625,0.584,�k�k��,1.4,��
2021/08/20,16:00,0.588,0.883,0.556,1.065,0.750,0.361,0.624,0.583,�k�k��,1.5,��
2021/08/20,16:10,0.588,0.882,0.554,1.065,0.751,0.361,0.622,0.582,���k��,2.0,��
2021/08/20,16:20,0.589,0.883,0.556,1.067,0.751,0.361,0.623,0.583,��,1.2,��
2021/08/20,16:30,0.589,0.882,0.556,1.067,0.750,0.361,0.624,0.585,�k,1.2,��
2021/08/20,16:40,0.589,0.882,0.555,1.068,0.749,0.361,0.625,0.585,�k,1.7,��
2021/08/20,16:50,0.589,0.883,0.555,1.068,0.750,0.359,0.623,0.587,�k,2.3,��
2021/08/20,17:00,0.592,0.883,0.554,1.066,0.750,0.360,0.623,0.585,�k�k��,2.5,��
2021/08/20,17:10,0.592,0.882,0.556,1.067,0.750,0.362,0.622,0.585,�k�k��,2.6,��
2021/08/20,17:20,0.590,0.884,0.556,1.068,0.750,0.361,0.624,0.586,�k�k��,2.8,��
2021/08/20,17:30,0.591,0.884,0.555,1.067,0.752,0.361,0.624,0.585,�k�k��,2.0,��
2021/08/20,17:40,0.590,0.885,0.556,1.067,0.752,0.361,0.625,0.584,�k,1.5,��
2021/08/20,17:50,0.591,0.885,0.558,1.067,0.752,0.362,0.625,0.585,�k,1.2,��
2021/08/20,18:00,0.591,0.885,0.555,1.069,0.751,0.362,0.626,0.586,�k�k��,1.7,��
2021/08/20,18:10,0.590,0.885,0.554,1.068,0.752,0.362,0.624,0.584,�k,2.0,��
2021/08/20,18:20,0.591,0.883,0.557,1.068,0.751,0.362,0.622,0.586,�k,2.0,��
2021/08/20,18:30,0.593,0.887,0.556,1.068,0.752,0.363,0.624,0.585,�k�k��,2.3,��
2021/08/20,18:40,0.590,0.885,0.555,1.068,0.750,0.362,0.624,0.586,�k�k��,1.9,��
2021/08/20,18:50,0.590,0.886,0.556,1.066,0.751,0.362,0.624,0.586,�k�k��,2.2,��
2021/08/20,19:00,0.590,0.885,0.557,1.069,0.752,0.361,0.625,0.584,�k�k��,2.5,��
2021/08/20,19:10,0.591,0.885,0.555,1.065,0.749,0.362,0.624,0.585,�k,2.3,��
2021/08/20,19:20,0.591,0.884,0.556,1.067,0.750,0.362,0.624,0.586,�k�k��,2.8,��
2021/08/20,19:30,0.591,0.885,0.556,1.066,0.752,0.362,0.624,0.585,�k�k��,3.0,��
2021/08/20,19:40,0.592,0.885,0.556,1.069,0.752,0.362,0.624,0.587,�k,2.8,��
2021/08/20,19:50,0.590,0.883,0.556,1.067,0.752,0.361,0.625,0.585,�k�k��,2.0,��
2021/08/20,20:00,0.591,0.887,0.555,1.066,0.751,0.360,0.625,0.586,�k�k��,2.0,��
2021/08/20,20:10,0.591,0.887,0.556,1.067,0.750,0.361,0.624,0.585,�k�k��,2.9,��
2021/08/20,20:20,0.591,0.887,0.555,1.068,0.750,0.360,0.624,0.586,�k,2.9,��
2021/08/20,20:30,0.591,0.887,0.558,1.068,0.750,0.363,0.624,0.586,�k,2.5,��
2021/08/20,20:40,0.593,0.886,0.555,1.068,0.750,0.361,0.624,0.584,�k,3.0,��
2021/08/20,20:50,0.595,0.887,0.556,1.065,0.753,0.361,0.626,0.584,�k,2.9,��
2021/08/20,21:00,0.591,0.885,0.556,1.066,0.751,0.361,0.626,0.586,�k,2.0,��
2021/08/20,21:10,0.591,0.884,0.555,1.065,0.750,0.361,0.624,0.584,�k�k��,2.8,��
2021/08/20,21:20,0.590,0.885,0.554,1.067,0.750,0.361,0.625,0.587,�k�k��,3.2,��
2021/08/20,21:30,0.593,0.884,0.555,1.067,0.751,0.362,0.625,0.584,�k,3.0,��
2021/08/20,21:40,0.593,0.885,0.556,1.066,0.750,0.361,0.625,0.586,�k,3.3,��
2021/08/20,21:50,0.590,0.886,0.555,1.069,0.750,0.362,0.623,0.586,�k,2.6,��
2021/08/20,22:00,0.592,0.886,0.556,1.068,0.751,0.361,0.626,0.587,�k�k��,3.2,��
2021/08/20,22:10,0.592,0.885,0.555,1.070,0.750,0.361,0.625,0.586,�k�k��,3.4,��
2021/08/20,22:20,0.591,0.886,0.555,1.067,0.750,0.362,0.624,0.585,�k�k��,3.1,��
2021/08/20,22:30,0.592,0.884,0.556,1.069,0.751,0.362,0.625,0.587,�k�k��,3.2,��
2021/08/20,22:40,0.591,0.886,0.555,1.068,0.752,0.361,0.624,0.585,�k�k��,2.5,��
2021/08/20,22:50,0.591,0.884,0.555,1.066,0.753,0.362,0.625,0.586,�k�k��,2.6,��
2021/08/20,23:00,0.592,0.884,0.556,1.069,0.751,0.363,0.624,0.585,�k�k��,2.6,��
2021/08/20,23:10,0.591,0.885,0.556,1.069,0.752,0.360,0.624,0.587,�k�k��,2.6,��
2021/08/20,23:20,0.593,0.884,0.555,1.067,0.752,0.362,0.624,0.585,�k�k��,2.6,��
2021/08/20,23:30,0.593,0.886,0.556,1.067,0.752,0.362,0.625,0.587,�k�k��,2.0,��
2021/08/20,23:40,0.593,0.886,0.557,1.068,0.750,0.361,0.624,0.585,�k�k��,2.0,��
2021/08/20,23:50,0.593,0.887,0.555,1.068,0.752,0.361,0.624,0.586,�k�k��,2.3,��
